Location: Oshawa
(43.9000°N, 78.8670°W)
Time: 11:42:15
(UTC-04:00)

Thor Agena Rocket - Visible Passes

Search period start: 25 September 2016 00:00
Search period end: 05 October 2016 00:00
Orbit: 760 x 808 km, 99.1° (Epoch: 25 September)

Date Brightness Start Highest point End Pass type
(mag) Time Alt. Az. Time Alt. Az. Time Alt. Az.
25 Sep 6.0 04:00:26 10° ESE 04:04:15 21° ENE 04:08:04 10° NNE visible
25 Sep 3.6 05:37:51 10° S 05:43:05 60° WSW 05:48:20 10° NNW visible
26 Sep 6.7 03:31:46 10° ENE 03:33:30 12° NE 03:35:14 10° NE visible
26 Sep 3.8 05:06:36 10° SSE 05:11:52 73° ENE 05:17:10 10° N visible
27 Sep 4.9 04:35:56 10° SE 04:40:49 39° ENE 04:45:43 10° N visible
27 Sep 4.4 06:15:38 10° SSW 06:20:10 29° W 06:24:45 10° NW visible
27 Sep 6.5 20:06:15 10° NNW 20:09:02 15° WNW 20:11:48 10° W visible
28 Sep 5.9 04:05:53 10° ESE 04:09:54 22° ENE 04:13:55 10° NNE visible
28 Sep 3.7 05:43:38 10° S 05:48:48 54° W 05:54:00 10° NNW visible
28 Sep 6.0 19:33:59 10° N 19:38:13 26° WNW 19:42:24 10° WSW visible
29 Sep 6.6 03:36:54 10° E 03:39:07 13° NE 03:41:21 10° NNE visible
29 Sep 3.6 05:12:17 10° SSE 05:17:34 81° ENE 05:22:53 10° NNW visible
30 Sep 4.7 04:41:30 10° SE 04:46:29 43° ENE 04:51:28 10° N visible
30 Sep 4.5 06:21:32 10° SSW 06:25:55 26° W 06:30:19 10° NW visible
30 Sep 6.6 20:12:15 10° NNW 20:14:39 13° NW 20:17:01 10° W visible
01 Oct 5.7 04:11:21 10° ESE 04:15:32 24° ENE 04:19:44 10° N visible
01 Oct 3.7 05:49:24 10° S 05:54:31 49° W 05:59:40 10° NNW visible
01 Oct 6.1 19:39:49 10° N 19:43:52 24° WNW 19:47:51 10° WSW visible
02 Oct 6.5 03:42:07 10° E 03:44:45 14° ENE 03:47:22 10° NNE visible
02 Oct 3.5 05:17:58 10° SSE 05:23:16 88° ENE 05:28:35 10° NNW visible
03 Oct 4.5 04:47:06 10° SE 04:52:09 48° ENE 04:57:13 10° N visible
03 Oct 4.6 06:27:28 10° SSW 06:31:40 24° W 06:35:53 10° NW visible
03 Oct 6.6 20:18:21 10° NNW 20:20:15 12° NW 20:22:08 10° WNW visible
04 Oct 5.6 04:16:50 10° ESE 04:21:11 27° ENE 04:25:32 10° N visible
04 Oct 3.9 05:55:12 10° S 06:00:15 44° W 06:05:18 10° NNW visible
04 Oct 6.2 19:45:39 10° NNW 19:49:29 21° WNW 19:53:16 10° WSW visible
